sat.trackr.live / text

‹ back to catalog

STARLINK-33730

NORAD 63439 · 2025-069G

PAYLOAD ACTIVE UNKNOWN

§ Identity

Operator
Country
US
Launch date
2025-04-04
Launch site
AFWTR
Launch vehicle
Mass (kg)
RCS (m²)

Purposes: comms

External: N2YO · Heavens-Above · Gunter

§ Orbital elements

Epoch: 2026-09-20T10:14:05.236800Z

Period
93.85 min
Inclination
53.1599°
Eccentricity
0.0001014
Mean motion
15.34395458 rev/d
Perigee alt
462.0 km
Apogee alt
463.4 km
Semi-major
6,840.9 km
B*
5.0972e-4
RAAN
309.8549°
Arg perigee
88.1518°
Mean anomaly
271.9601°
Rev number
8,333

§ Raw data

STARLINK-337301 63439U 25069G   26263.42644950  .00016882  00000+0  50972-3 0  99902 63439  53.1599 309.8549 0001014  88.1518 271.9601 15.34395458 83334

JSON: /api/v1/satellites/63439 · /tle

For live sub-satellite position, see the globe view (requires WebGL).

§ Visibility from observer

Set your observer location to see the next 7 days of passes ≥ 10°. The values pass through the URL so the page stays shareable.

No JS? Fill the form by hand. The geolocation button needs JavaScript.